Location: Unspecified
(35.6961°N, 0.0000°E)
Time: 02:28:46
(UTC+00:00)

Vanguard 3 - All Passes

Search period start: 27 May 2019 00:00
Search period end: 06 June 2019 00:00
Orbit: 508 x 3263 km, 33.3° (Epoch: 25 May)

Date Brightness Start Highest point End Pass type
(mag) Time Alt. Az. Time Alt. Az. Time Alt. Az.
27 May - 01:34:58 10° W 01:46:00 44° SSW 02:02:44 10° SE visible
27 May - 03:51:05 10° WSW 04:01:01 19° SW 04:12:46 10° S visible
27 May - 17:51:06 10° S 17:53:36 15° SE 17:56:36 10° ESE daylight
27 May - 19:59:19 10° WSW 20:04:14 60° SSE 20:12:41 10° E visible
27 May - 22:09:43 10° W 22:16:38 76° S 22:29:28 10° ESE visible
28 May - 00:20:56 10° W 00:30:22 55° SSW 00:46:22 10° SE visible
28 May - 02:34:21 10° W 02:45:06 29° SSW 02:59:36 10° SSE visible
28 May - 18:46:47 10° SW 18:50:45 36° SSE 18:56:38 10° E daylight
28 May - 20:56:40 10° W 21:02:16 75° S 21:12:23 10° E visible
28 May - 23:07:25 10° W 23:15:13 65° SSW 23:29:22 10° ESE visible
29 May - 01:19:23 10° W 01:29:21 38° SSW 01:44:36 10° SSE visible
29 May - 03:36:38 10° WSW 03:44:14 15° SW 03:53:02 10° S visible
29 May - 17:34:58 10° S 17:37:37 17° SE 17:40:47 10° ESE daylight
29 May - 19:43:47 10° WSW 19:48:22 63° SSE 19:56:00 10° E visible
29 May - 21:54:12 10° W 22:00:34 72° S 22:12:15 10° ESE visible
30 May - 00:05:21 10° W 00:13:57 48° SSW 00:28:32 10° SE visible
30 May - 02:19:07 10° WSW 02:28:25 23° SSW 02:40:50 10° SSE visible
30 May - 18:31:07 10° SW 18:34:54 40° SSE 18:40:18 10° E daylight
30 May - 20:41:11 10° W 20:46:22 74° S 20:55:30 10° E visible
30 May - 22:51:53 10° W 22:59:01 58° SSW 23:11:52 10° ESE visible
31 May - 01:03:57 10° W 01:12:51 32° SSW 01:26:18 10° SSE visible
31 May - 03:24:07 10° SW 03:27:36 11° SW 03:31:21 10° SSW visible
31 May - 17:18:54 10° SSW 17:21:43 20° SSE 17:25:00 10° ESE daylight
31 May - 19:28:17 10° WSW 19:32:34 65° S 19:39:26 10° E visible
31 May - 21:38:44 10° W 21:44:34 67° S 21:55:07 10° ESE visible
31 May - 23:49:53 10° W 23:57:39 41° SSW 00:10:37 10° SE visible
01 Jun - 02:04:21 10° WSW 02:11:53 18° SSW 02:21:37 10° S visible
01 Jun - 18:15:29 10° SW 18:19:07 44° SSE 18:24:05 10° E daylight
01 Jun - 20:25:44 10° W 20:30:32 72° S 20:38:43 10° E visible
01 Jun - 22:36:24 10° W 22:42:54 50° SSW 22:54:23 10° SE visible
02 Jun - 00:48:46 10° WSW 00:56:29 26° SSW 01:07:48 10° SSE visible
02 Jun - 17:02:53 10° SSW 17:05:53 24° SSE 17:09:14 10° E daylight
02 Jun - 19:12:47 10° WSW 19:16:49 66° S 19:22:59 10° E daylight
02 Jun - 21:23:16 10° W 21:28:38 60° S 21:38:04 10° ESE visible
02 Jun - 23:34:32 10° W 23:41:28 34° SSW 23:52:39 10° SE visible
03 Jun - 01:50:28 10° SW 01:55:31 13° SSW 02:01:32 10° S night (unlit)
03 Jun - 15:51:11 10° S 15:52:36 12° SSE 15:54:00 10° SE daylight
03 Jun - 17:59:49 10° WSW 18:03:23 48° SSE 18:07:58 10° E daylight
03 Jun - 20:10:17 10° W 20:14:44 67° S 20:22:03 10° ESE visible
03 Jun - 22:21:01 10° W 22:26:54 42° SSW 22:36:55 10° SE visible
04 Jun - 00:33:54 10° WSW 00:40:15 20° SSW 00:49:01 10° SSE night (unlit)
04 Jun - 16:46:52 10° SW 16:50:08 28° SSE 16:53:31 10° E daylight
04 Jun - 18:57:16 10° W 19:01:07 67° S 19:06:39 10° E daylight
04 Jun - 21:07:51 10° W 21:12:46 52° SSW 21:21:04 10° ESE visible
04 Jun - 23:19:22 10° WSW 23:25:23 26° SSW 23:34:35 10° SSE visible
05 Jun - 15:34:12 10° SSW 15:36:47 16° SSE 15:39:09 10° ESE daylight
05 Jun - 17:44:09 10° WSW 17:47:42 53° S 17:51:57 10° E daylight
05 Jun - 19:54:50 10° W 19:58:59 61° S 20:05:29 10° ESE visible
05 Jun - 22:05:43 10° W 22:10:58 34° SSW 22:19:26 10° SE visible
